Regional Weather Roundup
Issued by NWS Sioux Falls, SD

Home | Current Version | Previous Version | Graphics & Text | Print | Product List | Glossary On
Versions: 1 2 3 4 5 6 7 8 9 10 11 12 13 14 15 16 17 18 19 20 21 22 23 24 25 26 27 28 29 30 31 32 33 34 35 36 37 38 39 40 41 42 43 44 45 46 47 48 49 50
000
ASUS43 KFSD 250310
RWRFSD

WEATHER ROUNDUP FOR SE SOUTH DAKOTA/SW MINNESOTA/NW IOWA
NATIONAL WEATHER SERVICE SIOUX FALLS SD
1000 PM CDT THU APR 24 2014

NOTE: "FAIR" INDICATES FEW OR NO CLOUDS BELOW 12,000 FEET WITH NO
SIGNIFICANT WEATHER AND OR OBSTRUCTIONS TO VISIBILITY.


SDZ038>040-050-052>070-250400-
SOUTHEAST SOUTH DAKOTA

CITY           SKY/WX    TMP DP  RH WIND       PRES   REMARKS
CHAMBERLAIN      N/A     54  22  28 NW5       29.78R
HURON          CLEAR     46  22  38 W9        29.74R
MADISON        FAIR      48  27  43 W5        29.74R
MITCHELL       CLEAR     53  21  28 W6        29.76R
SIOUX FALLS    CLEAR     47  34  60 W5        29.75R
WINNER         FAIR      56  24  29 W3        29.79R
YANKTON        CLEAR     54  25  32 W9        29.79R
$$

MNZ071-072-080-081-089-090-097-098-250400-
SOUTHWEST MINNESOTA

CITY           SKY/WX    TMP DP  RH WIND       PRES   REMARKS
FAIRMONT       PTCLDY    45  39  81 W5        29.78R
JACKSON        MOCLDY    45  39  81 S6        29.77R
LUVERNE        CLEAR     50  41  71 SE8       29.76R
MARSHALL       CLEAR     46  37  71 E3        29.74S
MONTEVIDEO     CLEAR     46  43  87 NW5       29.74S
PIPESTONE      CLEAR     46  43  87 SE3       29.75R
REDWOOD FALLS  CLEAR     46  42  86 SW6       29.74R
TRACY          CLEAR     46  43  88 CALM      29.75R
WINDOM         CLEAR     46  43  87 CALM      29.76R
WORTHINGTON    CLEAR     45  37  76 E5        29.78R
$$

IAZ001>003-012>014-020>022-031-032-NEZ013-014-SDZ071-250400-
NORTHWEST IOWA

CITY           SKY/WX    TMP DP  RH WIND       PRES   REMARKS
CHEROKEE       PTCLDY    46  42  86 CALM      29.77S
DENISON        PTCLDY    48  43  81 SE5       29.78R
ESTHERVILLE    PTCLDY    44  42  93 NW6       29.77R
LE MARS          N/A     54  43  66 W5        29.78R
ORANGE CITY    CLEAR     54  41  62 CALM      29.77R
SHELDON        CLEAR     45  41  87 E8        29.77R
SIOUX CITY     CLEAR     56  42  59 CALM      29.78R
SPENCER        CLEAR     45  41  86 SE3       29.77R
STORM LAKE     PTCLDY    50  43  76 CALM      29.78S
$$

ABBREVIATIONS USED IN REMARKS
   TC - TEMPERATURE IN CELSIUS
  WCI - WIND CHILL INDEX
   HX - HEAT INDEX
  VSB - VISIBILITY




USA.gov is the U.S. government's official web portal to all federal, state and local government web resources and services.